Location: Dover
(39.1580°N, 75.5250°W)
Time: 12:17:48
(UTC-05:00)

Daily predictions for brighter satellites

Satellite Brightness Start Highest point End
(mag) Time Altitude Azimuth Time Altitude Azimuth Time Altitude Azimuth
Meteor 1-25 Rocket 4.3 18:12:38 10° S 18:18:14 86° W 18:23:57 10° N
Okean 1 3.4 18:16:14 10° N 18:20:15 57° E 18:24:15 10° SSE
Cosmos 1633 3.3 18:17:08 10° SSE 18:20:24 31° E 18:23:42 10° NNE
Cosmos 1812 2.8 18:17:10 10° N 18:21:03 85° W 18:24:54 10° S
Cosmos 1536 Rocket 3.8 18:18:36 10° N 18:22:58 51° E 18:27:19 10° SSE
Cosmos 1818 3.7 18:19:15 10° SSW 18:24:42 84° WNW 18:30:11 10° NNE
Cosmos 407 Rocket 3.8 18:20:51 10° SSW 18:26:04 77° WNW 18:31:25 10° NNE
Cosmos 2360 Rocket 2.5 18:22:54 10° N 18:28:20 44° ENE 18:33:43 10° SE
ASTRO F (AKARI) 4.4 18:25:12 10° NNE 18:28:46 89° ESE 18:32:07 10° SSW
Cosmos 2219 4.2 18:24:13 10° SSE 18:28:47 25° ESE 18:33:22 10° NE
Cosmos 2219 Rocket 3.9 18:26:55 10° NNE 18:29:28 13° NE 18:31:49 10° ENE
Cosmos 676 Rocket 4.0 18:25:27 10° SSW 18:30:37 81° ESE 18:35:51 10° NNE
DNEPR-1 R/B 3.9 18:28:08 10° NW 18:32:19 65° WSW 18:36:35 10° SSE
Meteor 1-11 Rocket 4.0 18:32:38 10° SSE 18:38:10 50° E 18:43:50 10° NNE
Cosmos 1461 3.9 18:41:08 10° NW 18:45:01 48° WSW 18:49:00 10° S
Cosmos 1140 Rocket 3.4 18:40:38 10° S 18:45:42 66° ESE 18:50:50 10° NNE
DELTA 2 R/B (1) 3.7 18:40:19 10° W 18:45:55 73° SSW 18:50:44 14° ESE
Cosmos 1602 3.6 18:44:55 10° S 18:48:45 72° E 18:52:39 10° NNE
Resurs 01 Rocket 2.1 18:44:49 10° SE 18:48:52 37° ENE 18:52:56 10° N
Cosmos 1300 Rocket 3.5 18:45:53 10° S 18:50:16 69° E 18:54:41 10° NNE
Cosmos 614 Rocket 3.9 18:48:37 10° S 18:53:35 58° ESE 18:58:34 10° NNE
Cosmos 1833 4.3 18:49:58 10° SSW 18:55:42 80° WNW 19:01:23 10° NNE
Abrixas rocket 3.2 18:52:54 10° SSW 18:55:54 31° SE 18:56:51 26° ESE
ALOS 2.2 18:52:12 10° SSE 18:56:48 63° ENE 19:01:26 10° N
Cosmos 2181 Rocket 4.0 18:52:46 10° N 18:59:03 80° E 19:05:24 10° S
Spot 2 Rocket 3.6 18:56:20 10° SSE 19:01:12 52° ENE 19:06:07 10° N
USA 229 DEB 4.4 18:56:31 10° NNW 19:03:03 37° NE 19:07:02 22° E
USA 229 4.4 18:56:37 10° NNW 19:03:10 37° NE 19:07:06 22° E
Cosmos 2333 Rocket 3.5 18:59:12 10° N 19:03:20 20° NE 19:04:11 19° ENE
FREGAT/IRIS 3.5 19:01:32 10° S 19:04:32 52° W 19:07:35 10° NNW
SL-16 R/B 3.9 18:59:49 10° NW 19:04:54 35° WSW 19:09:57 10° SSW
Helios 1A 3.8 19:04:17 27° E 19:04:58 28° ENE 19:08:34 10° N
Cosmos 2208 Rocket 4.3 19:00:14 10° N 19:05:30 47° ENE 19:09:51 14° SE
Resurs 1-3 3.8 19:02:30 10° SSE 19:06:43 49° ENE 19:10:58 10° N
Cosmos 1340 3.3 19:03:41 10° NNW 19:07:25 58° W 19:11:07 10° S
Cosmos 2074 Rocket 4.0 19:06:37 10° SSE 19:12:42 57° E 19:18:49 10° NNE
Cosmos 1850 Rocket 3.9 19:07:34 10° S 19:12:49 74° ESE 19:18:10 10° NNE
Cosmos 2184 Rocket 4.0 19:09:29 10° S 19:15:39 58° E 19:21:47 10° NNE
Envisat 4.2 19:18:30 23° NE 19:18:30 23° NE 19:21:45 10° NNE
Helios 1B rocket 2.8 19:18:13 38° ENE 19:18:46 40° E 19:22:40 10° S
FengYun 1-2 T 4.2 19:13:23 10° SSE 19:18:51 86° WSW 19:24:23 10° NNW
NOSS 8 (H) 4.4 19:16:51 10° SW 19:20:15 78° NW 19:21:51 29° NNE
Intercosmos 24 4.3 19:16:24 10° S 19:20:25 61° E 19:26:07 10° NNE
HJ-1C 3.9 19:18:21 10° S 19:21:40 59° W 19:25:01 10° NNW
Okean 2 4.2 19:19:00 10° N 19:22:00 33° NE 19:22:00 33° NE
SJ-6B 4.3 19:19:17 10° SSW 19:23:03 39° W 19:26:46 10° NNW
Okean 1 Rocket 3.5 19:20:38 10° SSW 19:25:04 64° W 19:29:33 10° N
Tiangong 2 3.3 19:23:11 10° W 19:25:27 19° SW 19:26:32 16° S
Meteor 1-5 Rocket 4.3 19:19:57 10° S 19:25:50 66° E 19:31:43 10° NNE
FENGYUN 3A 3.9 19:21:20 10° S 19:26:43 72° WSW 19:32:09 10° NNW
Genesis I 3.1 19:23:39 10° NNW 19:27:35 69° ENE 19:28:05 60° ESE
SAR-Lupe-4 3.5 19:30:26 65° NE 19:30:26 65° NE 19:33:47 10° N
Hubble Space Telescope 3.2 19:30:26 10° S 19:31:23 12° S 19:31:23 12° S
Gbstr 26 Del rocket 3.5 19:32:16 10° WSW 19:35:55 44° NNW 19:36:52 35° N
Nadezhda 3 Rocket 4.3 19:30:50 10° N 19:36:34 39° ENE 19:36:37 39° ENE
Cosmos 2322 4.4 19:32:13 10° NNW 19:37:49 56° WSW 19:43:20 10° S
CZ-2D R/B 3.3 19:43:32 54° SSW 19:44:16 73° WSW 19:48:05 10° NNW
Cosmos 2154 Rocket 4.1 19:38:32 10° SSE 19:44:38 51° E 19:50:44 10° NNE
GEOS 3 Rocket 4.2 19:39:44 10° NNE 19:44:51 56° NW 19:50:00 10° SW
Cosmos 2285 Rocket 3.9 19:38:52 10° NNW 19:45:19 69° ENE 19:47:50 38° SE
Cosmos 1025 Rocket 3.1 19:41:46 10° N 19:46:09 75° W 19:48:42 25° S
GPS 2-04 Rocket1 3.6 19:42:50 10° WSW 19:46:29 42° S 19:46:29 42° S
H-2A R/B 3.8 19:46:26 12° S 19:49:35 43° W 19:53:10 10° NNW
Meteor 2-13 Rocket 4.3 19:44:30 10° S 19:50:32 74° E 19:56:37 10° NNE
Cosmos 1536 4.4 19:47:10 10° SW 19:50:49 35° WNW 19:54:30 10° N
COSMOS 2428 2.7 19:47:32 10° NNW 19:53:14 81° WSW 19:55:38 36° SSE
Cosmos 2333 4.1 19:48:52 10° NNW 19:54:38 90° W 19:56:21 48° SSE
Meteor 2-4 Rocket 4.5 19:50:03 10° NNW 19:55:22 50° W 20:00:33 10° SSW
Cosmos 2237 Rocket 3.2 19:52:06 10° N 19:55:52 31° NNE 19:55:52 31° NNE
NOSS 0 Rocket 4.0 20:02:50 10° NNW 20:08:24 61° NE 20:08:24 61° NE
Cosmos 2360 Rocket 4.3 20:07:33 10° NW 20:12:00 24° WSW 20:16:26 10° SSW
Cosmos 2219 4.2 20:07:09 10° SW 20:12:38 44° WNW 20:18:07 10° N
Cosmos 2219 Rocket 2.2 20:08:39 10° NNW 20:13:36 70° N 20:13:36 70° N
Cosmos 2227 Rocket 4.5 20:13:08 10° S 20:13:25 11° S 20:13:25 11° S
Resurs 01 Rocket 4.2 20:22:25 10° SW 20:25:27 18° W 20:28:31 10° NW
SL-16 R/B 4.2 20:25:51 10° N 20:27:20 17° N 20:27:20 17° N
BREEZE-M DEB (TANK) 4.3 20:30:30 10° WNW 20:34:45 80° SW 20:35:01 78° S
Cosmos 2333 Rocket 3.2 20:42:23 10° NNW 20:46:14 42° NW 20:46:14 42° NW
USA 229 DEB 4.4 20:47:22 10° NW 20:54:12 50° WSW 20:54:32 49° SW
USA 229 4.4 20:47:27 10° NW 20:54:18 50° WSW 20:54:36 50° WSW
ATLAS 2AS CENTAUR R/B 4.5 21:05:58 10° NNW 21:10:18 25° N 21:10:18 25° N
